Location: Fernhill
(41.0167°S, 175.6333°E)
Time: 12:05:37
(UTC+00:00)

Cosmos 1833 Rocket - Pass Details

Date: 08 November 2025
Orbit: 829 x 840 km, 71.0° (Epoch: 09 December)

Event Time Altitude Azimuth Distance (km) Brightness Sun altitude
Exits shadow 09:34:45 38° 347° (NNW) 1,257 3.3 -23.0°
Maximum altitude 09:36:59 80° 68° (ENE) 860 2.5 -23.3°
Drops below altitude 10° 09:42:41 10° 154° (SSE) 2,474 5.4 -24.0°
Sets 09:45:08 0° 155° (SSE) 3,413 6.2 -24.2°
